www.pogodaiklimat.ru

Погода и климат >> Архив погоды >> Австралия >> Северная территория >> Джервойс


ПОГОДА в Джервойсе

  • Прогноз погоды в Джервойсе
  • Монитор погоды в Джервойсе

АРХИВ ПОГОДЫ в Джервойсе

Время (UTC), дата Ветер
(напр.,м/с)
 
Видим.   Явления Облачность Т
(С)
Тd
(С)
f
(%)
Тe
(С)
Тes
(С)
Комфортность P
(гПа)
Po
(гПа)
Тmin
(С)
Tmax
(С)
R
(мм)
R24
(мм)
S
(см)
08 19.03 ЮВ 6 н/о н/о +36.9 -1.1 9 +33 +33 жарко 1007.2 970.4
09 19.03 ЮВ 5 н/о н/о +36.0 -0.4 10 +32 +32 жарко 1007.6 970.8
11 19.03 Ю 3 н/о н/о +31.7 -0.1 13 +29 +29 жарко 1009.7 972.8
12 19.03 Ю 3 н/о н/о +30.9 +0.3 14 +28 +28 жарко 1009.9 973.0
14 19.03 Ю 3 н/о н/о +28.3 +0.9 17 +26 +26 жарко 1010.0 973.1 +39.4
15 19.03 Ю 3 н/о н/о +27.6 +1.2 18 +26 +26 жарко 1009.9 973.0
17 19.03 Ю 2 н/о н/о +24.6 +1.5 22 +23 +23 комфорт 1009.3 972.4
18 19.03 Ю 2 н/о н/о +24.4 +1.3 22 +23 +23 комфорт 1009.1 972.3
20 19.03 Ю 2 н/о н/о +22.5 +1.5 25 +22 +22 комфорт 1010.4 973.5
21 19.03 Ю 2 н/о н/о +21.9 +1.0 25 +21 +21 комфорт 1010.6 973.7
23 19.03 В 5 50 км ясно +32.5 +1.6 14 +29 +32 жарко 1012.1 975.1
00 20.03 В 6 н/о н/о +33.1 +1.0 13 +30 +30 жарко 1012.2 975.3
02 20.03 ЮВ 6 50 км ясно +36.7 +0.1 10 +33 +41 жарко 1010.7 973.8 +21.9
03 20.03 Ю 5 н/о н/о +37.7 +0.9 10 +34 +34 очень
жарко
1009.9 973.0
05 20.03 ЮВ 6 н/о н/о +38.8 -3.2 7 +35 +35 очень
жарко
1007.6 970.8
06 20.03 ЮВ 7 н/о н/о +38.2 -3.6 7 +34 +34 очень
жарко
1007.4 970.6
08 20.03 ЮВ 5 н/о н/о +37.0 -1.1 9 +33 +33 жарко 1007.5 970.7
09 20.03 ЮВ 5 н/о н/о +36.2 -1.7 9 +32 +32 жарко 1007.8 971.0
11 20.03 Ю 3 н/о н/о +31.2 -0.5 13 +28 +28 жарко 1009.9 973.0
12 20.03 Ю 3 н/о н/о +30.9 -0.7 13 +28 +28 жарко 1010.3 973.4
14 20.03 ЮВ 4 н/о н/о +28.9 +0.6 16 +26 +26 жарко 1010.4 973.5 +39.4
15 20.03 ЮВ 4 н/о н/о +28.4 +0.2 16 +26 +26 жарко 1010.2 973.3
17 20.03 Ю 2 н/о н/о +25.5 +0.9 20 +24 +24 комфорт 1009.2 972.3
18 20.03 Ю 2 н/о н/о +24.6 +1.5 22 +23 +23 комфорт 1009.0 972.2
20 20.03 Ю 3 н/о н/о +23.7 +2.0 24 +23 +23 комфорт 1009.9 973.0
21 20.03 Ю 3 н/о н/о +23.3 +1.6 24 +23 +23 комфорт 1010.1 973.2
23 20.03 ЮВ 6 50 км 1/0
[Ci fib]
+32.6 +0.6 13 +29 +32 жарко 1011.1 974.2
00 21.03 ЮВ 6 н/о н/о +34.1 +0.7 12 +31 +31 жарко 1011.1 974.2
02 21.03 ЮВ 6 50 км 1/0
[Ci fib]
+37.4 +3.2 12 +34 +42 очень
жарко
1009.5 972.6 +23.1
03 21.03 ЮВ 6 н/о н/о +37.3 +3.1 12 +34 +34 очень
жарко
1008.8 972.0
05 21.03 В 7 н/о н/о +38.9 +1.8 10 +35 +35 очень
жарко
1006.5 969.7
06 21.03 В 7 н/о н/о +38.6 +1.6 10 +35 +35 очень
жарко
1006.1 969.4
09 21.03 ЮВ 5 н/о н/о +36.6 +0.1 10 +33 +33 жарко 1006.8 970.0
11 21.03 ЮВ 3 н/о н/о +32.7 -0.4 12 +29 +29 жарко 1008.9 972.1
12 21.03 ЮВ 3 н/о н/о +31.9 +0.1 13 +29 +29 жарко 1009.1 972.3
14 21.03 ЮВ 3 н/о н/о +30.4 -0.1 14 +27 +27 жарко 1009.0 972.2 +39.8
15 21.03 ЮВ 4 н/о н/о +29.8 -0.5 14 +27 +27 жарко 1009.0 972.2
17 21.03 ЮВ 3 н/о н/о +27.2 +0.1 17 +25 +25 комфорт 1008.4 971.6
18 21.03 ЮВ 2 н/о н/о +26.5 +0.3 18 +25 +25 комфорт 1008.3 971.5
23 21.03 ЮВ 4 50 км 3/0
[Ci fib]
+31.8 +1.0 14 +29 +32 жарко 1011.1 974.2
02 22.03 В 4 н/о н/о +36.7 +10.1 20 +35 +35 очень
жарко
1008.9 972.1 +22.4
03 22.03 С 3 н/о н/о +37.6 +9.2 18 +36 +36 очень
жарко
1008.3 971.5
05 22.03 ЮВ 4 н/о н/о +39.0 +4.4 12 +36 +36 очень
жарко
1005.2 968.5
06 22.03 Ю 5 н/о н/о +38.9 +4.4 12 +36 +36 очень
жарко
1005.0 968.3
08 22.03 В 5 н/о н/о +38.2 +3.8 12 +35 +35 очень
жарко
1005.1 968.4
09 22.03 В 4 н/о н/о +37.2 +4.2 13 +34 +34 очень
жарко
1005.2 968.5
11 22.03 В 3 н/о н/о +32.6 +5.2 18 +30 +30 жарко 1006.8 970.0
12 22.03 В 3 н/о н/о +32.0 +6.2 20 +30 +30 жарко 1007.1 970.3
14 22.03 В 3 н/о н/о +30.1 +6.7 23 +29 +29 жарко 1007.4 970.6 +39.9
15 22.03 В 3 н/о н/о +29.1 +7.1 25 +28 +28 жарко 1007.4 970.6
17 22.03 СВ 3 н/о н/о +26.6 +7.6 30 +26 +26 жарко 1007.1 970.3
18 22.03 С 3 н/о н/о +26.4 +7.9 31 +26 +26 жарко 1007.3 970.5
20 22.03 С 3 н/о н/о +25.5 +11.3 41 +27 +27 жарко 1007.9 971.1
21 22.03 С 3 н/о н/о +25.6 +12.8 45 +27 +27 жарко 1008.2 971.4
23 22.03 С 6 50 км 1/0
[Cs]
+31.9 +16.2 39 +35 +37 очень
душно
1009.9 973.0
00 23.03 СВ 6 н/о н/о +32.2 +14.8 35 +34 +34 душно 1010.0 973.1
02 23.03 СВ 7 н/о н/о +36.1 +11.7 23 +36 +36 очень
жарко
1008.3 971.5 +25.2
03 23.03 В 7 н/о н/о +36.4 +9.1 19 +35 +35 очень
жарко
1007.6 970.8
05 23.03 СВ 6 н/о н/о +37.6 +10.0 19 +36 +36 очень
жарко
1005.1 968.4
06 23.03 СВ 6 н/о н/о +37.8 +10.2 19 +37 +37 очень
жарко
1004.8 968.1
08 23.03 СВ 6 н/о н/о +35.4 +13.5 27 +36 +36 очень
жарко
1005.5 968.8
09 23.03 СВ 6 н/о н/о +34.8 +13.6 28 +36 +36 душно 1005.8 969.1
11 23.03 СВ 5 н/о н/о +32.5 +14.6 34 +34 +34 очень
жарко
1007.7 970.9
12 23.03 СВ 4 н/о н/о +32.2 +14.8 35 +34 +34 душно 1008.0 971.2
14 23.03 СВ 2 н/о н/о +29.9 +14.8 40 +32 +32 жарко 1007.6 970.8 +38.7
15 23.03 СВ 2 н/о н/о +29.5 +15.2 42 +32 +32 душно 1007.3 970.5
17 23.03 С 4 н/о н/о +30.0 +16.4 44 +33 +33 душно 1006.8 970.0
18 23.03 С 5 н/о н/о +29.8 +16.6 45 +33 +33 душно 1006.9 970.1
20 23.03 С 5 н/о н/о +28.9 +18.1 52 +34 +34 очень
душно
1007.7 970.9
21 23.03 С 5 н/о н/о +28.8 +18.3 53 +34 +34 очень
душно
1007.8 971.0
23 23.03 СВ 7 50 км 10/1 2000 м
[Cu hum Ac As Cs]
+29.6 +19.3 54 +35 +36 очень
душно
1008.7 971.9
00 24.03 СВ 9 н/о н/о +29.7 +18.5 51 +35 +35 очень
душно
1008.9 972.1
02 24.03 В 7 50 км {ливн. осадки} 9/3 1500 м
[Cu med, cong Ac As Cs]
+28.7 +19.9 59 +35 +37 очень
душно
1007.4 970.6 +28.5
03 24.03 В 7 н/о н/о +29.9 +19.6 54 +36 +36 очень
душно
1007.1 970.3
05 24.03 СВ 8 н/о н/о +33.1 +15.6 35 +35 +35 душно 1004.1 967.4
06 24.03 В 6 н/о н/о +32.7 +16.5 38 +36 +36 очень
душно
1003.9 967.2
08 24.03 ЮВ 3 н/о {туман} н/о +24.2 +23.3 95 +32 +32 очень
душно
1005.8 969.1
09 24.03 ЮВ 3 н/о н/о +24.3 +23.4 95 +33 +33 очень
душно
1006.4 969.6
11 24.03 ЮВ 3 н/о {туман} н/о +23.9 +23.2 96 +32 +32 очень
душно
1007.6 970.8 20
12 24.03 ЮВ 3 н/о н/о +23.9 +23.2 96 +32 +32 очень
душно
1007.9 971.1
14 24.03 ЮВ 5 н/о {туман} н/о +23.7 +23.2 97 +32 +32 очень
душно
1007.6 970.8 +34.1
15 24.03 ЮВ 6 н/о н/о +23.8 +23.5 98 +32 +32 очень
душно
1007.3 970.5
17 24.03 ЮВ 6 н/о {осадки} н/о +23.3 +22.8 97 +32 +32 очень
душно
1005.7 969.0 34
18 24.03 ЮВ 7 н/о н/о +23.3 +22.8 97 +32 +32 очень
душно
1005.3 968.6
20 24.03 ЮВ 8 н/о {осадки} н/о +22.7 +22.5 99 +31 +31 очень
душно
1005.1 968.4
21 24.03 ЮВ 9 н/о н/о +22.8 +22.6 99 +31 +31 очень
душно
1005.2 968.5
23 24.03 ЮВ 9 н/о {туман} н/о +22.9 +22.9 100 +32 +32 очень
душно
1006.0 969.3 86
00 25.03 ЮВ 9 н/о н/о +22.8 +22.8 100 +31 +31 очень
душно
1006.5 969.7
02 25.03 ЮВ 7 20 км слаб. дождь 10/10 600 м
[Cu med, cong]
+22.9 +22.9 100 +32 +32 очень
душно
1006.8 970.0 +22.6
03 25.03 ЮВ 7 н/о н/о +23.0 +23.0 100 +32 +32 очень
душно
1006.5 969.7
05 25.03 ЮВ 7 н/о {туман} н/о +23.1 +23.1 100 +32 +32 очень
душно
1005.5 968.8 77
06 25.03 ЮВ 9 н/о н/о +23.2 +23.2 100 +33 +33 очень
душно
1005.5 968.8
08 25.03 ЮВ 10 н/о {туман} н/о +22.3 +22.1 99 +30 +30 очень
душно
1007.6 970.8
09 25.03 ЮВ 8 н/о н/о +22.1 +21.9 99 +29 +29 очень
душно
1008.3 971.5
11 25.03 ЮВ 6 н/о {туман} н/о +23.1 +23.1 100 +32 +32 очень
душно
1010.4 973.5 89
12 25.03 ЮВ 7 н/о н/о +23.3 +23.1 99 +33 +33 очень
душно
1010.7 973.8
14 25.03 ЮВ 8 н/о {осадки} н/о +22.8 +22.0 95 +31 +31 очень
душно
1011.0 974.1 +24.4
15 25.03 ЮВ 8 н/о н/о +22.4 +22.1 98 +30 +30 очень
душно
1011.0 974.1
17 25.03 Ю 7 н/о {осадки} н/о +21.8 +21.5 98 +28 +28 душно 1010.8 973.9 90
18 25.03 Ю 9 н/о н/о +21.7 +21.4 98 +28 +28 душно 1010.9 974.0
20 25.03 Ю 8 н/о {туман} н/о +19.8 +15.2 75 +21 +21 комфорт 1012.4 975.4
21 25.03 Ю 7 н/о н/о +20.1 +14.0 68 +22 +22 комфорт 1012.4 975.5
00 26.03 Ю 9 н/о н/о +19.8 +14.0 69 +21 +21 комфорт 1014.3 977.3
03 26.03 Ю 8 н/о н/о +20.6 +16.2 76 +23 +23 комфорт 1013.9 976.9
06 26.03 Ю 9 н/о н/о +24.4 +17.4 65 +28 +28 душно 1011.3 974.4

 

Местоположение метеостанции Джервойс (Северная территория, Австралия): широта -22.95 долгота 136.15 высота над уровнем моря 329 м.

В архиве по умолчанию представлена погода в Джервойсе за последнюю неделю. Архивные данные за месяц целиком и за предыдущие месяцы, начиная с января 2011 года, Вы можете получить, выбрав интересующий диапазон дат из раскрывающегося списка и нажав кнопку "Ввод!".


*Определитесь, кто Вы:
робот инопланетянин человек

Внимание! Время в таблицах - всемирное. Для получения местного времени необходимо прибавить поправку, которая равна 9.5 ч.

Смотрите также архив погоды в соседних городах и на ближайших метеорологических станциях:

Погода в Элис-Спрингсе (Северная территория, Австралия) (250 км)
Погода на Виноградной ферма (Северная территория, Австралия) (264 км)
Погода в Камоауиле (Квинсленд, Австралия) (394 км)
Погода в Фосфат-Хилл (Квинсленд, Австралия) (408 км)
Погода в Нью Мэй Даун (Квинсленд, Австралия) (421 км)
Погода в Теннант-Крике (Северная территория, Австралия) (422 км)
Погода на Маунт-Айза (Квинсленд, Австралия) (427 км)
Погода в Бердсвилле (Квинсленд, Австралия) (461 км)
Погода на Озере Джулиус (Квинсленд, Австралия) (486 км)
Погода в Аэропорту Трепелл (Квинсленд, Австралия) (502 км)

Пояснения к столбцам:

Ветер - указаны скорость ветра в м/с - средняя за 10 мин, порывы в срок и между сроками (в фигурных скобках) и направление, откуда дует ветер: С - северный, СВ - северо-восточный, В - восточный, ЮВ - юго-восточный, Ю - южный, ЮЗ - юго-западный, З - западный, СЗ - северо-западный.
Видимость - горизонтальная дальность видимости в метрах или километрах. При видимости от 1 до 10 км при отсутствии осадков обычно наблюдается дымка, при ухудшении видимости до 1 км и менее - туман. В сухую погоду видимость может ухудшаться дымом, пылью или мглою.
Явления - указаны атмосферные явления, наблюдавшиеся в срок или в последний час перед сроком; фигурными скобками обозначены явления, наблюдавшиеся между сроками (за 1-3 часа до срока); квадратными скобками обозначены град или гололедные отложения с указанием их диаметра в мм.
Облачность - указаны через наклонную черту общая и нижняя облачность в баллах и высота нижней границы облаков в метрах; квадратными скобками обозначены формы облаков: Ci - перистые, Cs - перисто-слоистые, Cc - перисто-кучевые, Ac - высококучевые, As - высокослоистые, Sc - слоисто-кучевые, Ns - слоисто-дождевые, Cu - кучевые, Cb - кучево-дождевые. Подробнее классификацию облаков см. в Атласе облаков (PDF).
T - Температура воздуха - температура, измеренная на высоте 2 м над землей.
Td - Температура точки росы - температура, при понижении до которой содержащийся в воздухе водяной пар достигнет насыщения.
f - Относительная влажность воздуха - влажноcть воздуха, измеренная на высоте 2 м над землей.
Te - Эффективная температура - температура, которую ощущает одетый по сезону человек в тени. Характеристика душности погоды. При расчете учитывается влияние влажности воздуха и скорости ветра на теплоощущения человека.
Tes - Эффективная температура на солнце - температура, которую ощущает человек, с поправкой на солнечный нагрев. Характеристика знойности погоды. Зависит от высоты солнца над горизонтом, облачности и скорости ветра. Ночью, в пасмурную погоду, а также при ветре 12 м/с и более поправка равна нулю.
P - Атмосферное давление - приведенное к уровню моря атмосферное давление.
Po - Атмосферное давление - измеренное на уровне метеостанции атмосферное давление.
Tmin - Минимальная температура - минимум температуры воздуха на высоте 2 м над землей.
Tmax - Максимальная температура - максимум температуры воздуха на высоте 2 м над землей.
R - Количество осадков - Количество выпавших осадков за период времени, мм. При наведении курсора мыши на число - период времени, за который выпало указанное количество осадков.
R24 - Количество осадков - Количество выпавших осадков за 24 часа, мм.
S - Снежный покров - Высота снежного покрова, см. При наведении курсора мыши на число - состояние снежного покрова и степень покрытия местности в баллах.